Starlink 4085

operational
NORAD ID: 53262 Int'l Des: 2022-086 Owner: SPXS Country: US Constellation: starlink
LEOCIRCULAR

Starlink 4085について

説明を読み込み中...

リアルタイム位置

3D地球を読み込み中...

次回通過

高度履歴

Altitude vs Time

uPlot chart will show altitude changes over time

軌道要素

1 53262U 22086W 25350.94267327 .00002817 00000-0 19502-3 0 9999
2 53262 53.2161 205.5865 0001327 88.4500 271.6644 15.08835978188570
Epoch: Dec 16, 2025 • Age: 10 hours

現在のステータス

高度 543.4 km
速度 7.60 km/s
衛星直下点 43.94°N, 121.31°E
打ち上げ日 Jul 24, 2022
運用期間 3.3 years
タイプ internet

技術仕様

分類 Payload
質量 297.00 kg
乾燥質量 275.00 kg
総質量 297.00 kg
長さ 0.20 m
直径 2.80 m
スパン 9.00 m
形状 Box + pan
製造者 SPXS
バスタイプ Starlink
フェーズステータス In Orbit
所有者/国 SPXS/US

大規模コンステレーション

Loading constellations...